Regional Weather Roundup
Issued by NWS

Home | Current Version | Previous Version | Graphics & Text | Print | Product List | Glossary On
Versions: 1 2 3 4 5 6 7 8 9 10 11 12 13 14 15 16 17 18 19 20 21 22 23 24 25 26 27 28 29 30 31 32 33 34 35 36 37 38 39 40 41 42 43 44 45 46 47 48 49 50
873
ASUS45 KTFX 251710
RWRMT
MONTANA REGIONAL WEATHER ROUNDUP
NATIONAL WEATHER SERVICE GREAT FALLS MT
1100 AM MDT THU AUG 25 2016

NOTE: "FAIR" INDICATES FEW OR NO CLOUDS BELOW 12000 FEET WITH NO
SIGNIFICANT WEATHER AND/OR OBSTRUCTIONS TO VISIBILITY.

MTZ001>007-043-251800-
WEST OF THE DIVIDE

CITY           SKY/WX    TMP DP  RH WIND       PRES   REMARKS
KALISPELL      MOSUNNY   60  40  47 NE9       30.26F
MISSOULA       MOSUNNY   61  39  44 VRB5      30.26F
BUTTE          SUNNY     54  32  43 CALM      30.31F
MULLAN PASS    SUNNY     54  34  46 VRB3      30.32S
DEER LODGE       N/A     55  34  44 CALM      30.32F
EUREKA           N/A     57  37  47 CALM      30.27F
HAMILTON         N/A     57  36  44 CALM      30.26F
LIBBY            N/A     61  37  41 NW3       30.25F
$$

MTZ008-052>055-251800-
SOUTHWEST MONTANA

CITY           SKY/WX    TMP DP  RH WIND       PRES   REMARKS
BOZEMAN        SUNNY     58  38  47 VRB3      30.30F
DILLON         SUNNY     55  34  45 CALM      30.29F
W YELLOWSTONE  SUNNY     52  32  46 N3        30.32F
ENNIS          SUNNY     54  34  47 CALM      30.34F
THREE FORKS      N/A     60  26  27 CALM      30.26F
TWIN BRIDGES     N/A     56  32  40 CALM      30.25F
$$

MTZ009-010-012-014-046-048-049-054-251800-
EAST SLOPES AND CENTRAL MONTANA

CITY           SKY/WX    TMP DP  RH WIND       PRES   REMARKS
CUT BANK       PTSUNNY   61  39  44 CALM      30.27F
GREAT FALLS    SUNNY     62  38  40 CALM      30.27F
MALMSTROM AFB  SUNNY     60  40  47 N3        30.27F
HELENA         SUNNY     59  38  45 CALM      30.28F
CHOTEAU          N/A     63  34  34 VRB3      30.29S
CONRAD           N/A     62  44  51 NE2       30.27S
$$

MTZ011-013-016-021-045-047-050-051-251800-
NORTH CENTRAL MONTANA

CITY           SKY/WX    TMP DP  RH WIND       PRES   REMARKS
HAVRE          CLOUDY    63  46  54 SW9       30.25S
LEWISTOWN      SUNNY     60  39  45 CALM      30.29F
N BAR RANCH      N/A     59  36  41 VRB5      30.31F
CHINOOK          N/A     64  45  48 SW6       30.24F
$$

MTZ017>020-022>027-061-062-251800-
NORTHEAST MONTANA

CITY           SKY/WX    TMP DP  RH WIND       PRES   REMARKS
GLASGOW        PTSUNNY   65  43  44 W6G17     30.22F
JORDAN           N/A     65  41  41 W9        30.24F
SIDNEY         PTSUNNY   68  44  42 NW13      30.21S
WOLF POINT     SUNNY     68  48  48 SW9       30.22F
POPLAR           N/A     64  45  48 W8        30.22S
$$

MTZ028>42-056>058-251800-
SOUTHCENTRAL AND SOUTHEAST MONTANA

CITY           SKY/WX    TMP DP  RH WIND       PRES   REMARKS
BAKER          CLOUDY    59  42  53 W12       30.28F
BILLINGS       MOSUNNY   59  40  49 SE5       30.29F
LIVINGSTON     SUNNY     58  39  49 VRB6      30.29F
MILES CITY     CLOUDY    61  42  49 W7        30.28S
FORSYTH          N/A     57  43  58 CALM      30.28F
LAUREL           N/A     59  41  51 E2        30.26S
ROUNDUP          N/A     61  39  44 S6        30.18S
$$

REGIONAL REPORTS...DAKOTAS

CITY           SKY/WX    TMP DP  RH WIND       PRES   REMARKS
WILLISTON      MOSUNNY   70  45  40 W14       30.19S
MINOT          PTSUNNY   67  48  50 NW17G25   30.14S
DICKINSON      MOSUNNY   60  44  55 NW12G20   30.21F
CROSBY           N/A     68  46  45 W9        30.18S
WATFORD CITY     N/A     66  45  45 NW13      30.20F
BISMARCK       CLOUDY    62  50  64 N15       30.17R
GRAND FORKS    PTSUNNY   67  51  56 NW17G28   30.01R
FARGO          LGT RAIN  64  56  75 W14       30.04R
BUFFALO SD       N/A     62  44  51 NW20      30.20S
RAPID CITY     CLOUDY    62  44  51 W6        30.30F
$$

REGIONAL REPORTS...WYOMING/IDAHO/WASHINGTON

CITY           SKY/WX    TMP DP  RH WIND       PRES   REMARKS
GILLETTE       CLOUDY    58  40  51 N7        30.32S
SHERIDAN       PTSUNNY   62  40  44 CALM      30.30F
BUFFALO WY     CLOUDY    56  38  50 MISG      30.34S
CODY           PTSUNNY   55  39  54 SE3       30.30F
YELLOWSTONE LA   N/A     48  36  63 VRB3      30.36S
IDAHO FALLS    MOSUNNY   61  37  41 N10       30.22F SMOKE
SALMON         SUNNY     59  37  44 CALM      30.24F
BOISE          SUNNY     73  33  23 S12       30.13S
SPOKANE        MOSUNNY   69  40  34 E12       30.19F
$$

REGIONAL REPORTS...ALBERTA

CITY           SKY/WX    TMP DP  RH WIND       PRES   REMARKS
EDMONTON       MOSUNNY   57  52  82 NW13      30.19S
CALGARY        LGT RAIN  55  48  76 N10G18    30.29S
LETHBRIDGE     CLOUDY    57  48  72 NW13      30.26S
MEDICINE HAT   PTSUNNY   59  48  67 NW5       30.23S
WATERTON GATE    N/A     61  43  51 NE7         N/A
CARDSTON         N/A     57  43  58 NW7         N/A
MILK RIVER       N/A     66  41  39 N5          N/A
ONEFOUR          N/A     61  43  51 W8          N/A
$$

REGIONAL REPORTS...SASKATCHEWAN

CITY           SKY/WX    TMP DP  RH WIND       PRES   REMARKS
SWIFT CURRENT  MOSUNNY   59  50  72 W15       30.17S
REGINA         MOSUNNY   64  52  63 W5        30.14F
CYPRESS HILLS    N/A     55  43  62 NW5         N/A
VAL MARIE        N/A     64  45  48 W6          N/A
ROCKGLEN         N/A     63  45  51 NW9         N/A
ASSINIBOIA       N/A     61  55  82 NW12        N/A
$$




USA.gov is the U.S. government's official web portal to all federal, state and local government web resources and services.